Time,TemperatureF,DewpointF,PressureIn,WindDirection,WindDirectionDegrees,WindSpeedMPH,WindSpeedGustMPH,Humidity,HourlyPrecipIn,Conditions,Clouds,dailyrainin,SoftwareType,DateUTC
2013-06-21 00:01:00,5.9,-4.6,29.65,North,0,0.0,0.0,61,0.00,,---,0.00,VWS V14.01,2013-06-21 04:01:00,
2013-06-21 00:02:00,5.9,-4.6,29.65,North,0,0.0,0.0,61,0.00,,---,0.00,VWS V14.01,2013-06-21 04:02:00,
2013-06-21 00:04:00,6.1,-4.5,29.65,North,0,0.0,0.0,61,0.00,,---,0.00,VWS V14.01,2013-06-21 04:04:00,
2013-06-21 00:09:00,6.4,-4.1,29.65,North,0,0.0,0.0,61,0.00,,---,0.00,VWS V14.01,2013-06-21 04:09:00,
2013-06-21 00:14:00,6.4,-4.1,29.65,North,0,0.0,0.0,61,0.00,,---,0.00,VWS V14.01,2013-06-21 04:14:00,
2013-06-21 00:20:00,6.3,-4.3,29.65,North,0,0.0,0.0,61,0.00,,---,0.00,VWS V14.01,2013-06-21 04:20:00,
2013-06-21 00:26:00,5.5,-5.0,29.65,North,0,0.0,0.0,61,0.00,,---,0.00,VWS V14.01,2013-06-21 04:26:00,
2013-06-21 00:32:00,4.5,-6.0,29.68,North,0,0.0,0.0,61,0.00,,---,0.00,VWS V14.01,2013-06-21 04:32:00,
2013-06-21 00:37:00,4.1,-6.3,29.68,North,0,0.0,0.0,61,0.00,,---,0.00,VWS V14.01,2013-06-21 04:37:00,
2013-06-21 00:42:00,3.4,-7.0,29.68,North,0,0.0,0.0,61,0.00,,---,0.00,VWS V14.01,2013-06-21 04:42:00,
2013-06-21 00:48:00,3.7,-6.7,29.65,North,0,0.0,0.0,61,0.00,,---,0.00,VWS V14.01,2013-06-21 04:48:00,
2013-06-21 00:54:00,4.1,-6.3,29.65,North,0,0.0,0.0,61,0.00,,---,0.00,VWS V14.01,2013-06-21 04:54:00,
2013-06-21 00:59:00,4.5,-6.0,29.65,North,0,0.0,0.0,61,0.00,,---,0.00,VWS V14.01,2013-06-21 04:59:00,
2013-06-21 01:05:00,5.0,-5.5,29.65,North,0,0.0,0.0,61,0.00,,---,0.00,VWS V14.01,2013-06-21 05:05:00,
2013-06-21 01:10:00,5.5,-5.0,29.65,North,0,0.0,0.0,61,0.00,,---,0.00,VWS V14.01,2013-06-21 05:10:00,
2013-06-21 01:15:00,5.9,-4.6,29.65,North,0,0.0,0.0,61,0.00,,---,0.00,VWS V14.01,2013-06-21 05:15:00,
2013-06-21 01:20:00,6.1,-4.5,29.65,North,0,0.0,0.0,61,0.00,,---,0.00,VWS V14.01,2013-06-21 05:20:00,
2013-06-21 01:25:00,6.4,-4.1,29.65,North,0,0.0,0.0,61,0.00,,---,0.00,VWS V14.01,2013-06-21 05:25:00,
2013-06-21 01:31:00,6.3,-4.3,29.65,North,0,0.0,0.0,61,0.00,,---,0.00,VWS V14.01,2013-06-21 05:31:00,
2013-06-21 01:36:00,5.9,-4.6,29.65,North,0,0.0,0.0,61,0.00,,---,0.00,VWS V14.01,2013-06-21 05:36:00,
2013-06-21 01:42:00,5.0,-5.5,29.65,North,0,0.0,0.0,61,0.00,,---,0.00,VWS V14.01,2013-06-21 05:42:00,
2013-06-21 01:47:00,4.3,-6.2,29.65,North,0,0.0,0.0,61,0.00,,---,0.00,VWS V14.01,2013-06-21 05:47:00,
2013-06-21 01:52:00,3.4,-7.0,29.65,North,0,0.0,0.0,61,0.00,,---,0.00,VWS V14.01,2013-06-21 05:52:00,
2013-06-21 01:57:00,3.2,-7.2,29.65,North,0,0.0,0.0,61,0.00,,---,0.00,VWS V14.01,2013-06-21 05:57:00,
2013-06-21 02:02:00,3.6,-6.9,29.65,North,0,0.0,0.0,61,0.00,,---,0.00,VWS V14.01,2013-06-21 06:02:00,
2013-06-21 02:08:00,3.9,-6.5,29.65,North,0,0.0,0.0,61,0.00,,---,0.00,VWS V14.01,2013-06-21 06:08:00,
2013-06-21 02:14:00,4.5,-6.0,29.65,North,0,0.0,0.0,61,0.00,,---,0.00,VWS V14.01,2013-06-21 06:14:00,
2013-06-21 02:19:00,4.8,-5.7,29.65,North,0,0.0,0.0,61,0.00,,---,0.00,VWS V14.01,2013-06-21 06:19:00,
2013-06-21 02:25:00,5.4,-5.2,29.65,North,0,0.0,0.0,61,0.00,,---,0.00,VWS V14.01,2013-06-21 06:25:00,
2013-06-21 02:31:00,5.9,-4.6,29.65,North,0,0.0,0.0,61,0.00,,---,0.00,VWS V14.01,2013-06-21 06:31:00,
2013-06-21 02:36:00,6.3,-4.3,29.65,North,0,0.0,0.0,61,0.00,,---,0.00,VWS V14.01,2013-06-21 06:36:00,
2013-06-21 02:41:00,6.4,-4.1,29.65,North,0,0.0,0.0,61,0.00,,---,0.00,VWS V14.01,2013-06-21 06:41:00,
2013-06-21 02:47:00,6.3,-4.3,29.65,North,0,0.0,0.0,61,0.00,,---,0.00,VWS V14.01,2013-06-21 06:47:00,
2013-06-21 02:52:00,5.4,-5.2,29.65,North,0,0.0,0.0,61,0.00,,---,0.00,VWS V14.01,2013-06-21 06:52:00,
2013-06-21 02:58:00,5.0,-5.5,29.65,North,0,0.0,0.0,61,0.00,,---,0.00,VWS V14.01,2013-06-21 06:58:00,
2013-06-21 03:04:00,3.7,-6.7,29.65,North,0,0.0,0.0,61,0.00,,---,0.00,VWS V14.01,2013-06-21 07:04:00,
2013-06-21 03:10:00,3.2,-7.2,29.65,North,0,0.0,0.0,61,0.00,,---,0.00,VWS V14.01,2013-06-21 07:10:00,
2013-06-21 03:15:00,3.2,-7.2,29.65,North,0,0.0,0.0,61,0.00,,---,0.00,VWS V14.01,2013-06-21 07:15:00,
2013-06-21 03:21:00,3.7,-6.7,29.65,North,0,0.0,0.0,61,0.00,,---,0.00,VWS V14.01,2013-06-21 07:21:00,
2013-06-21 03:26:00,4.1,-6.3,29.65,North,0,0.0,0.0,61,0.00,,---,0.00,VWS V14.01,2013-06-21 07:26:00,
2013-06-21 03:31:00,4.5,-6.0,29.65,North,0,0.0,0.0,61,0.00,,---,0.00,VWS V14.01,2013-06-21 07:31:00,
2013-06-21 03:37:00,5.0,-5.5,29.65,North,0,0.0,0.0,61,0.00,,---,0.00,VWS V14.01,2013-06-21 07:37:00,
2013-06-21 03:42:00,5.5,-5.0,29.65,North,0,0.0,0.0,61,0.00,,---,0.00,VWS V14.01,2013-06-21 07:42:00,
2013-06-21 03:47:00,5.9,-4.6,29.65,North,0,0.0,0.0,61,0.00,,---,0.00,VWS V14.01,2013-06-21 07:47:00,
2013-06-21 03:52:00,6.3,-4.3,29.65,North,0,0.0,0.0,61,0.00,,---,0.00,VWS V14.01,2013-06-21 07:52:00,
2013-06-21 03:58:00,6.4,-4.1,29.65,North,0,0.0,0.0,61,0.00,,---,0.00,VWS V14.01,2013-06-21 07:58:00,
2013-06-21 04:04:00,6.1,-4.5,29.65,North,0,0.0,0.0,61,0.00,,---,0.00,VWS V14.01,2013-06-21 08:04:00,
2013-06-21 04:10:00,5.4,-5.2,29.65,North,0,0.0,0.0,61,0.00,,---,0.00,VWS V14.01,2013-06-21 08:10:00,
2013-06-21 04:15:00,4.6,-5.8,29.65,North,0,0.0,0.0,61,0.00,,---,0.00,VWS V14.01,2013-06-21 08:15:00,
2013-06-21 04:21:00,3.7,-6.7,29.65,North,0,0.0,0.0,61,0.00,,---,0.00,VWS V14.01,2013-06-21 08:21:00,
2013-06-21 04:27:00,2.8,-7.6,29.65,North,0,0.0,0.0,61,0.00,,---,0.00,VWS V14.01,2013-06-21 08:27:00,
2013-06-21 04:33:00,3.2,-7.2,29.65,North,0,0.0,0.0,61,0.00,,---,0.00,VWS V14.01,2013-06-21 08:33:00,
2013-06-21 04:38:00,3.6,-6.9,29.65,North,0,0.0,0.0,61,0.00,,---,0.00,VWS V14.01,2013-06-21 08:38:00,
2013-06-21 04:43:00,4.1,-6.3,29.65,North,0,0.0,0.0,61,0.00,,---,0.00,VWS V14.01,2013-06-21 08:43:00,
2013-06-21 04:49:00,4.5,-6.0,29.65,North,0,0.0,0.0,61,0.00,,---,0.00,VWS V14.01,2013-06-21 08:49:00,
2013-06-21 04:54:00,5.0,-5.5,29.65,North,0,0.0,0.0,61,0.00,,---,0.00,VWS V14.01,2013-06-21 08:54:00,
2013-06-21 05:00:00,5.4,-5.2,29.65,North,0,0.0,0.0,61,0.00,,---,0.00,VWS V14.01,2013-06-21 09:00:00,
2013-06-21 05:05:00,5.7,-4.8,29.65,North,0,0.0,0.0,61,0.00,,---,0.00,VWS V14.01,2013-06-21 09:05:00,
2013-06-21 05:10:00,6.1,-4.5,29.65,North,0,0.0,0.0,61,0.00,,---,0.00,VWS V14.01,2013-06-21 09:10:00,
2013-06-21 05:15:00,6.4,-4.1,29.65,North,0,0.0,0.0,61,0.00,,---,0.00,VWS V14.01,2013-06-21 09:15:00,
2013-06-21 05:20:00,6.3,-4.3,29.65,North,0,0.0,0.0,61,0.00,,---,0.00,VWS V14.01,2013-06-21 09:20:00,
2013-06-21 05:26:00,5.7,-4.8,29.65,North,0,0.0,0.0,61,0.00,,---,0.00,VWS V14.01,2013-06-21 09:26:00,
2013-06-21 05:31:00,5.0,-5.5,29.65,North,0,0.0,0.0,61,0.00,,---,0.00,VWS V14.01,2013-06-21 09:31:00,
2013-06-21 05:37:00,4.1,-6.3,29.65,North,0,0.0,0.0,61,0.00,,---,0.00,VWS V14.01,2013-06-21 09:37:00,
2013-06-21 05:42:00,3.2,-7.2,29.65,North,0,0.0,0.0,61,0.00,,---,0.00,VWS V14.01,2013-06-21 09:42:00,
2013-06-21 05:47:00,3.0,-7.4,29.65,North,0,0.0,0.0,61,0.00,,---,0.00,VWS V14.01,2013-06-21 09:47:00,
2013-06-21 05:52:00,3.4,-7.0,29.65,North,0,0.0,0.0,61,0.00,,---,0.00,VWS V14.01,2013-06-21 09:52:00,
2013-06-21 05:58:00,3.7,-6.7,29.65,North,0,0.0,0.0,61,0.00,,---,0.00,VWS V14.01,2013-06-21 09:58:00,
2013-06-21 06:03:00,4.3,-6.2,29.65,North,0,0.0,0.0,61,0.00,,---,0.00,VWS V14.01,2013-06-21 10:03:00,
2013-06-21 06:09:00,4.6,-5.8,29.65,North,0,0.0,0.0,61,0.00,,---,0.00,VWS V14.01,2013-06-21 10:09:00,
2013-06-21 06:14:00,5.2,-5.3,29.65,North,0,0.0,0.0,61,0.00,,---,0.00,VWS V14.01,2013-06-21 10:14:00,
2013-06-21 06:20:00,5.5,-5.0,29.65,North,0,0.0,0.0,61,0.00,,---,0.00,VWS V14.01,2013-06-21 10:20:00,
2013-06-21 06:26:00,6.1,-4.5,29.65,North,0,0.0,0.0,61,0.00,,---,0.00,VWS V14.01,2013-06-21 10:26:00,
2013-06-21 06:31:00,6.3,-4.3,29.65,North,0,0.0,0.0,61,0.00,,---,0.00,VWS V14.01,2013-06-21 10:31:00,
2013-06-21 06:36:00,6.3,-4.3,29.65,North,0,0.0,0.0,61,0.00,,---,0.00,VWS V14.01,2013-06-21 10:36:00,
2013-06-21 06:41:00,6.1,-4.5,29.65,North,0,0.0,0.0,61,0.00,,---,0.00,VWS V14.01,2013-06-21 10:41:00,
2013-06-21 06:46:00,5.5,-5.0,29.65,North,0,0.0,0.0,61,0.00,,---,0.00,VWS V14.01,2013-06-21 10:46:00,
2013-06-21 06:51:00,5.0,-5.5,29.65,North,0,0.0,0.0,61,0.00,,---,0.00,VWS V14.01,2013-06-21 10:51:00,
2013-06-21 06:56:00,3.9,-6.5,29.65,North,0,0.0,0.0,61,0.00,,---,0.00,VWS V14.01,2013-06-21 10:56:00,
2013-06-21 07:01:00,3.2,-7.2,29.68,North,0,0.0,0.0,61,0.00,,---,0.00,VWS V14.01,2013-06-21 11:01:00,
2013-06-21 07:07:00,3.2,-7.2,29.68,North,0,0.0,0.0,61,0.00,,---,0.00,VWS V14.01,2013-06-21 11:07:00,
2013-06-21 07:12:00,3.6,-6.9,29.68,North,0,0.0,0.0,61,0.00,,---,0.00,VWS V14.01,2013-06-21 11:12:00,
2013-06-21 07:17:00,4.1,-6.3,29.65,North,0,0.0,0.0,61,0.00,,---,0.00,VWS V14.01,2013-06-21 11:17:00,
2013-06-21 07:23:00,4.5,-6.0,29.65,North,0,0.0,0.0,61,0.00,,---,0.00,VWS V14.01,2013-06-21 11:23:00,
2013-06-21 07:29:00,4.8,-5.7,29.65,North,0,0.0,0.0,61,0.00,,---,0.00,VWS V14.01,2013-06-21 11:29:00,
2013-06-21 07:35:00,5.4,-5.2,29.68,North,0,0.0,0.0,61,0.00,,---,0.00,VWS V14.01,2013-06-21 11:35:00,
2013-06-21 07:40:00,5.7,-4.8,29.68,North,0,0.0,0.0,61,0.00,,---,0.00,VWS V14.01,2013-06-21 11:40:00,
2013-06-21 07:46:00,6.1,-4.5,29.68,North,0,0.0,0.0,61,0.00,,---,0.00,VWS V14.01,2013-06-21 11:46:00,
2013-06-21 07:51:00,6.4,-4.1,29.68,North,0,0.0,0.0,61,0.00,,---,0.00,VWS V14.01,2013-06-21 11:51:00,
2013-06-21 07:56:00,6.1,-4.5,29.68,North,0,0.0,0.0,61,0.00,,---,0.00,VWS V14.01,2013-06-21 11:56:00,
2013-06-21 08:02:00,5.7,-4.8,29.65,North,0,0.0,0.0,61,0.00,,---,0.00,VWS V14.01,2013-06-21 12:02:00,
2013-06-21 08:08:00,4.8,-5.7,29.65,North,0,0.0,0.0,61,0.00,,---,0.00,VWS V14.01,2013-06-21 12:08:00,
2013-06-21 08:14:00,3.9,-6.5,29.65,North,0,0.0,0.0,61,0.00,,---,0.00,VWS V14.01,2013-06-21 12:14:00,
2013-06-21 08:19:00,3.0,-7.4,29.68,North,0,0.0,0.0,61,0.00,,---,0.00,VWS V14.01,2013-06-21 12:19:00,
2013-06-21 08:24:00,2.8,-7.6,29.68,North,0,0.0,0.0,61,0.00,,---,0.00,VWS V14.01,2013-06-21 12:24:00,
2013-06-21 08:29:00,3.2,-7.2,29.68,North,0,0.0,0.0,61,0.00,,---,0.00,VWS V14.01,2013-06-21 12:29:00,
2013-06-21 08:35:00,3.6,-6.9,29.68,North,0,0.0,0.0,61,0.00,,---,0.00,VWS V14.01,2013-06-21 12:35:00,
2013-06-21 08:40:00,4.1,-6.3,29.68,North,0,0.0,0.0,61,0.00,,---,0.00,VWS V14.01,2013-06-21 12:40:00,
2013-06-21 08:46:00,4.5,-6.0,29.68,North,0,0.0,0.0,61,0.00,,---,0.00,VWS V14.01,2013-06-21 12:46:00,
2013-06-21 08:52:00,5.2,-5.3,29.68,North,0,0.0,0.0,61,0.00,,---,0.00,VWS V14.01,2013-06-21 12:52:00,
2013-06-21 08:58:00,5.5,-5.0,29.68,North,0,0.0,0.0,61,0.00,,---,0.00,VWS V14.01,2013-06-21 12:58:00,
2013-06-21 09:03:00,5.9,-4.6,29.68,North,0,0.0,0.0,61,0.00,,---,0.00,VWS V14.01,2013-06-21 13:03:00,
2013-06-21 09:09:00,6.3,-4.3,29.68,North,0,0.0,0.0,61,0.00,,---,0.00,VWS V14.01,2013-06-21 13:09:00,
2013-06-21 09:14:00,6.4,-4.1,29.68,North,0,0.0,0.0,61,0.00,,---,0.00,VWS V14.01,2013-06-21 13:14:00,
2013-06-21 09:19:00,5.9,-4.6,29.68,North,0,0.0,0.0,61,0.00,,---,0.00,VWS V14.01,2013-06-21 13:19:00,
2013-06-21 09:25:00,5.5,-5.0,29.68,North,0,0.0,0.0,61,0.00,,---,0.00,VWS V14.01,2013-06-21 13:25:00,
2013-06-21 09:31:00,4.3,-6.2,29.65,North,0,0.0,0.0,61,0.00,,---,0.00,VWS V14.01,2013-06-21 13:31:00,
2013-06-21 09:37:00,3.6,-6.9,29.65,North,0,0.0,0.0,61,0.00,,---,0.00,VWS V14.01,2013-06-21 13:37:00,
2013-06-21 09:42:00,3.2,-7.2,29.65,North,0,0.0,0.0,61,0.00,,---,0.00,VWS V14.01,2013-06-21 13:42:00,
2013-06-21 09:47:00,3.6,-6.9,29.68,North,0,0.0,0.0,61,0.00,,---,0.00,VWS V14.01,2013-06-21 13:47:00,
2013-06-21 09:53:00,3.9,-6.5,29.68,North,0,0.0,0.0,61,0.00,,---,0.00,VWS V14.01,2013-06-21 13:53:00,
2013-06-21 09:58:00,4.5,-6.0,29.68,North,0,0.0,0.0,61,0.00,,---,0.00,VWS V14.01,2013-06-21 13:58:00,
2013-06-21 10:03:00,5.0,-5.5,29.68,North,0,0.0,0.0,61,0.00,,---,0.00,VWS V14.01,2013-06-21 14:03:00,
2013-06-21 10:09:00,5.4,-5.2,29.68,North,0,0.0,0.0,61,0.00,,---,0.00,VWS V14.01,2013-06-21 14:09:00,
2013-06-21 10:15:00,5.7,-4.8,29.65,North,0,0.0,0.0,61,0.00,,---,0.00,VWS V14.01,2013-06-21 14:15:00,
2013-06-21 10:21:00,6.1,-4.5,29.65,North,0,0.0,0.0,61,0.00,,---,0.00,VWS V14.01,2013-06-21 14:21:00,
2013-06-21 10:26:00,6.4,-4.1,29.65,North,0,0.0,0.0,61,0.00,,---,0.00,VWS V14.01,2013-06-21 14:26:00,
2013-06-21 10:31:00,6.3,-4.3,29.65,North,0,0.0,0.0,61,0.00,,---,0.00,VWS V14.01,2013-06-21 14:31:00,
2013-06-21 10:37:00,5.9,-4.6,29.65,North,0,0.0,0.0,61,0.00,,---,0.00,VWS V14.01,2013-06-21 14:37:00,
2013-06-21 10:43:00,5.0,-5.5,29.65,North,0,0.0,0.0,61,0.00,,---,0.00,VWS V14.01,2013-06-21 14:43:00,
2013-06-21 10:48:00,4.1,-6.3,29.65,North,0,0.0,0.0,61,0.00,,---,0.00,VWS V14.01,2013-06-21 14:48:00,
2013-06-21 10:54:00,3.4,-7.0,29.65,North,0,0.0,0.0,61,0.00,,---,0.00,VWS V14.01,2013-06-21 14:54:00,
2013-06-21 10:59:00,3.2,-7.2,29.65,North,0,0.0,0.0,61,0.00,,---,0.00,VWS V14.01,2013-06-21 14:59:00,
2013-06-21 11:04:00,3.7,-6.7,29.68,North,0,0.0,0.0,61,0.00,,---,0.00,VWS V14.01,2013-06-21 15:04:00,
2013-06-21 11:10:00,4.1,-6.3,29.68,North,0,0.0,0.0,61,0.00,,---,0.00,VWS V14.01,2013-06-21 15:10:00,
2013-06-21 11:16:00,4.6,-5.8,29.68,North,0,0.0,0.0,61,0.00,,---,0.00,VWS V14.01,2013-06-21 15:16:00,
2013-06-21 11:21:00,4.6,-5.8,29.68,North,0,0.0,0.0,61,0.00,,---,0.00,VWS V14.01,2013-06-21 15:21:00,
2013-06-21 11:27:00,4.6,-5.8,29.68,North,0,0.0,0.0,61,0.00,,---,0.00,VWS V14.01,2013-06-21 15:27:00,
2013-06-21 11:32:00,4.6,-5.8,29.68,North,0,0.0,0.0,61,0.00,,---,0.00,VWS V14.01,2013-06-21 15:32:00,
2013-06-21 11:37:00,4.6,-5.8,29.68,North,0,0.0,0.0,61,0.00,,---,0.00,VWS V14.01,2013-06-21 15:37:00,
2013-06-21 11:42:00,4.6,-5.8,29.68,North,0,0.0,0.0,61,0.00,,---,0.00,VWS V14.01,2013-06-21 15:42:00,
2013-06-21 11:47:00,4.6,-5.8,29.68,North,0,0.0,0.0,61,0.00,,---,0.00,VWS V14.01,2013-06-21 15:47:00,
2013-06-21 11:52:00,4.6,-5.8,29.68,North,0,0.0,0.0,61,0.00,,---,0.00,VWS V14.01,2013-06-21 15:52:00,
2013-06-21 11:57:00,4.6,-5.8,29.68,North,0,0.0,0.0,61,0.00,,---,0.00,VWS V14.01,2013-06-21 15:57:00,
2013-06-21 12:02:00,4.6,-5.8,29.68,North,0,0.0,0.0,61,0.00,,---,0.00,VWS V14.01,2013-06-21 16:02:00,
2013-06-21 12:07:00,3.6,-6.9,29.68,North,0,0.0,0.0,61,0.00,,---,0.00,VWS V14.01,2013-06-21 16:07:00,
2013-06-21 12:12:00,3.6,-6.9,29.68,North,0,0.0,0.0,61,0.00,,---,0.00,VWS V14.01,2013-06-21 16:12:00,
2013-06-21 12:17:00,4.6,-5.8,29.68,North,0,0.0,0.0,61,0.00,,---,0.00,VWS V14.01,2013-06-21 16:17:00,
2013-06-21 12:23:00,3.6,-6.9,29.68,North,0,0.0,0.0,61,0.00,,---,0.00,VWS V14.01,2013-06-21 16:23:00,
2013-06-21 12:28:00,3.6,-6.9,29.68,North,0,0.0,0.0,61,0.00,,---,0.00,VWS V14.01,2013-06-21 16:28:00,
2013-06-21 12:33:00,3.6,-6.9,29.65,North,0,0.0,0.0,61,0.00,,---,0.00,VWS V14.01,2013-06-21 16:33:00,
2013-06-21 12:40:00,3.6,-6.9,29.65,North,0,0.0,0.0,61,0.00,,---,0.00,VWS V14.01,2013-06-21 16:40:00,
2013-06-21 12:45:00,3.6,-6.9,29.65,North,0,0.0,0.0,61,0.00,,---,0.00,VWS V14.01,2013-06-21 16:45:00,
2013-06-21 12:50:00,3.6,-6.9,29.65,North,0,0.0,0.0,61,0.00,,---,0.00,VWS V14.01,2013-06-21 16:50:00,
2013-06-21 12:55:00,3.6,-6.9,29.65,North,0,0.0,0.0,61,0.00,,---,0.00,VWS V14.01,2013-06-21 16:55:00,
2013-06-21 13:00:00,3.6,-6.9,29.65,North,0,0.0,0.0,61,0.00,,---,0.00,VWS V14.01,2013-06-21 17:00:00,
2013-06-21 13:05:00,3.6,-6.9,29.65,North,0,0.0,0.0,61,0.00,,---,0.00,VWS V14.01,2013-06-21 17:05:00,
2013-06-21 13:10:00,3.6,-6.9,29.65,North,0,0.0,0.0,61,0.00,,---,0.00,VWS V14.01,2013-06-21 17:10:00,
2013-06-21 13:16:00,3.6,-6.9,29.65,North,0,0.0,0.0,61,0.00,,---,0.00,VWS V14.01,2013-06-21 17:16:00,
2013-06-21 13:21:00,3.6,-6.9,29.65,North,0,0.0,0.0,61,0.00,,---,0.00,VWS V14.01,2013-06-21 17:21:00,
2013-06-21 13:26:00,3.6,-6.9,29.65,North,0,0.0,0.0,61,0.00,,---,0.00,VWS V14.01,2013-06-21 17:26:00,
2013-06-21 13:31:00,3.6,-6.9,29.65,North,0,0.0,0.0,61,0.00,,---,0.00,VWS V14.01,2013-06-21 17:31:00,
2013-06-21 13:36:00,4.6,-5.8,29.65,North,0,0.0,0.0,61,0.00,,---,0.00,VWS V14.01,2013-06-21 17:36:00,
2013-06-21 13:42:00,3.6,-6.9,29.65,North,0,0.0,0.0,61,0.00,,---,0.00,VWS V14.01,2013-06-21 17:42:00,
2013-06-21 13:46:00,3.6,-6.9,29.65,North,0,0.0,0.0,61,0.00,,---,0.00,VWS V14.01,2013-06-21 17:46:00,
2013-06-21 13:47:00,3.6,-6.9,29.65,North,0,0.0,0.0,61,0.00,,---,0.00,VWS V14.01,2013-06-21 17:47:00,
2013-06-21 13:48:00,4.6,-5.8,29.65,North,0,0.0,0.0,61,0.00,,---,0.00,VWS V14.01,2013-06-21 17:48:00,
2013-06-21 13:49:00,3.6,-6.9,29.65,North,0,0.0,0.0,61,0.00,,---,0.00,VWS V14.01,2013-06-21 17:49:00,
2013-06-21 13:54:00,3.6,-6.9,29.65,North,0,0.0,0.0,61,0.00,,---,0.00,VWS V14.01,2013-06-21 17:54:00,
2013-06-21 14:00:00,3.6,-6.9,29.65,North,0,0.0,0.0,61,0.00,,---,0.00,VWS V14.01,2013-06-21 18:00:00,
2013-06-21 14:05:00,3.6,-6.9,29.65,North,0,0.0,0.0,61,0.00,,---,0.00,VWS V14.01,2013-06-21 18:05:00,
2013-06-21 14:10:00,4.6,-5.8,29.65,North,0,0.0,0.0,61,0.00,,---,0.00,VWS V14.01,2013-06-21 18:10:00,
2013-06-21 14:15:00,3.6,-6.9,29.65,North,0,0.0,0.0,61,0.00,,---,0.00,VWS V14.01,2013-06-21 18:15:00,
2013-06-21 14:20:00,3.6,-6.9,29.65,North,0,0.0,0.0,61,0.00,,---,0.00,VWS V14.01,2013-06-21 18:20:00,
2013-06-21 14:24:00,3.6,-6.9,29.65,North,0,0.0,0.0,61,0.00,,---,0.00,VWS V14.01,2013-06-21 18:24:00,
2013-06-21 14:25:00,3.6,-6.9,29.65,North,0,0.0,0.0,61,0.00,,---,0.00,VWS V14.01,2013-06-21 18:25:00,
2013-06-21 14:27:00,3.6,-6.9,29.65,North,0,0.0,0.0,61,0.00,,---,0.00,VWS V14.01,2013-06-21 18:27:00,
2013-06-21 14:32:00,3.6,-6.9,29.65,North,0,0.0,0.0,61,0.00,,---,0.00,VWS V14.01,2013-06-21 18:32:00,
2013-06-21 14:37:00,3.0,-7.4,29.65,North,0,0.0,0.0,61,0.00,,---,0.00,VWS V14.01,2013-06-21 18:37:00,
2013-06-21 14:42:00,3.0,-7.4,29.65,North,0,0.0,0.0,61,0.00,,---,0.00,VWS V14.01,2013-06-21 18:42:00,
2013-06-21 14:45:00,3.4,-7.0,29.65,North,0,0.0,0.0,61,0.00,,---,0.00,VWS V14.01,2013-06-21 18:45:00,
2013-06-21 14:47:00,3.4,-7.0,29.65,North,0,0.0,0.0,61,0.00,,---,0.00,VWS V14.01,2013-06-21 18:47:00,
2013-06-21 14:49:00,3.4,-7.0,29.65,North,0,0.0,0.0,61,0.00,,---,0.00,VWS V14.01,2013-06-21 18:49:00,
2013-06-21 14:54:00,4.1,-6.3,29.65,North,0,0.0,0.0,61,0.00,,---,0.00,VWS V14.01,2013-06-21 18:54:00,
2013-06-21 14:59:00,4.5,-6.0,29.65,North,0,0.0,0.0,61,0.00,,---,0.00,VWS V14.01,2013-06-21 18:59:00,
2013-06-21 15:04:00,5.0,-5.5,29.65,North,0,0.0,0.0,61,0.00,,---,0.00,VWS V14.01,2013-06-21 19:04:00,
2013-06-21 15:09:00,5.4,-5.2,29.65,North,0,0.0,0.0,61,0.00,,---,0.00,VWS V14.01,2013-06-21 19:09:00,
2013-06-21 15:14:00,5.7,-4.8,29.65,North,0,0.0,0.0,61,0.00,,---,0.00,VWS V14.01,2013-06-21 19:14:00,
2013-06-21 15:19:00,6.1,-4.5,29.65,North,0,0.0,0.0,61,0.00,,---,0.00,VWS V14.01,2013-06-21 19:19:00,
2013-06-21 15:23:00,6.3,-4.3,29.65,North,0,0.0,0.0,61,0.00,,---,0.00,VWS V14.01,2013-06-21 19:23:00,
2013-06-21 15:28:00,6.4,-4.1,29.65,North,0,0.0,0.0,61,0.00,,---,0.00,VWS V14.01,2013-06-21 19:28:00,
2013-06-21 15:33:00,6.3,-4.3,29.65,North,0,0.0,0.0,61,0.00,,---,0.00,VWS V14.01,2013-06-21 19:33:00,
2013-06-21 15:38:00,5.5,-5.0,29.65,North,0,0.0,0.0,61,0.00,,---,0.00,VWS V14.01,2013-06-21 19:38:00,
2013-06-21 15:43:00,5.0,-5.5,29.65,North,0,0.0,0.0,61,0.00,,---,0.00,VWS V14.01,2013-06-21 19:43:00,
2013-06-21 15:47:00,4.1,-6.3,29.62,North,0,0.0,0.0,61,0.00,,---,0.00,VWS V14.01,2013-06-21 19:47:00,
2013-06-21 15:52:00,3.7,-6.7,29.62,North,0,0.0,0.0,61,0.00,,---,0.00,VWS V14.01,2013-06-21 19:52:00,
2013-06-21 15:58:00,3.9,-6.5,29.62,North,0,0.0,0.0,61,0.00,,---,0.00,VWS V14.01,2013-06-21 19:58:00,
2013-06-21 16:03:00,4.3,-6.2,29.62,North,0,0.0,0.0,61,0.00,,---,0.00,VWS V14.01,2013-06-21 20:03:00,
2013-06-21 16:05:00,4.5,-6.0,29.62,North,0,0.0,0.0,61,0.00,,---,0.00,VWS V14.01,2013-06-21 20:05:00,
2013-06-21 16:10:00,5.0,-5.5,29.62,North,0,0.0,0.0,61,0.00,,---,0.00,VWS V14.01,2013-06-21 20:10:00,
2013-06-21 16:12:00,5.0,-5.5,29.62,North,0,0.0,0.0,61,0.00,,---,0.00,VWS V14.01,2013-06-21 20:12:00,
2013-06-21 16:14:00,5.2,-5.3,29.62,North,0,0.0,0.0,61,0.00,,---,0.00,VWS V14.01,2013-06-21 20:14:00,
2013-06-21 16:20:00,5.7,-4.8,29.62,North,0,0.0,0.0,61,0.00,,---,0.00,VWS V14.01,2013-06-21 20:20:00,
2013-06-21 16:26:00,6.1,-4.5,29.62,North,0,0.0,0.0,61,0.00,,---,0.00,VWS V14.01,2013-06-21 20:26:00,
2013-06-21 16:31:00,6.3,-4.3,29.62,North,0,0.0,0.0,61,0.00,,---,0.00,VWS V14.01,2013-06-21 20:31:00,
2013-06-21 16:36:00,6.3,-4.3,29.62,North,0,0.0,0.0,61,0.00,,---,0.00,VWS V14.01,2013-06-21 20:36:00,
2013-06-21 16:41:00,6.3,-4.3,29.62,North,0,0.0,0.0,61,0.00,,---,0.00,VWS V14.01,2013-06-21 20:41:00,
2013-06-21 16:46:00,5.5,-5.0,29.62,North,0,0.0,0.0,61,0.00,,---,0.00,VWS V14.01,2013-06-21 20:46:00,
2013-06-21 16:52:00,5.0,-5.5,29.62,North,0,0.0,0.0,61,0.00,,---,0.00,VWS V14.01,2013-06-21 20:52:00,
2013-06-21 16:57:00,4.1,-6.3,29.62,North,0,0.0,0.0,61,0.00,,---,0.00,VWS V14.01,2013-06-21 20:57:00,
2013-06-21 17:03:00,3.6,-6.9,29.62,North,0,0.0,0.0,61,0.00,,---,0.00,VWS V14.01,2013-06-21 21:03:00,
2013-06-21 17:06:00,3.7,-6.7,29.62,North,0,0.0,0.0,61,0.00,,---,0.00,VWS V14.01,2013-06-21 21:06:00,
2013-06-21 17:12:00,4.1,-6.3,29.62,North,0,0.0,0.0,61,0.00,,---,0.00,VWS V14.01,2013-06-21 21:12:00,
2013-06-21 17:17:00,4.5,-6.0,29.62,North,0,0.0,0.0,61,0.00,,---,0.00,VWS V14.01,2013-06-21 21:17:00,
2013-06-21 17:22:00,5.0,-5.5,29.62,North,0,0.0,0.0,61,0.00,,---,0.00,VWS V14.01,2013-06-21 21:22:00,
2013-06-21 17:27:00,5.4,-5.2,29.62,North,0,0.0,0.0,61,0.00,,---,0.00,VWS V14.01,2013-06-21 21:27:00,
2013-06-21 17:33:00,5.7,-4.8,29.62,North,0,0.0,0.0,61,0.00,,---,0.00,VWS V14.01,2013-06-21 21:33:00,
2013-06-21 17:38:00,6.1,-4.5,29.62,North,0,0.0,0.0,61,0.00,,---,0.00,VWS V14.01,2013-06-21 21:38:00,
2013-06-21 17:43:00,6.4,-4.1,29.62,North,0,0.0,0.0,61,0.00,,---,0.00,VWS V14.01,2013-06-21 21:43:00,
2013-06-21 17:49:00,6.4,-4.1,29.62,North,0,0.0,0.0,61,0.00,,---,0.00,VWS V14.01,2013-06-21 21:49:00,
2013-06-21 17:54:00,5.9,-4.6,29.62,North,0,0.0,0.0,61,0.00,,---,0.00,VWS V14.01,2013-06-21 21:54:00,
2013-06-21 17:59:00,5.9,-4.6,29.62,North,0,0.0,0.0,61,0.00,,---,0.00,VWS V14.01,2013-06-21 21:59:00,
2013-06-21 18:05:00,4.5,-6.0,29.62,North,0,0.0,0.0,61,0.00,,---,0.00,VWS V14.01,2013-06-21 22:05:00,
2013-06-21 18:10:00,3.9,-6.5,29.62,North,0,0.0,0.0,61,0.00,,---,0.00,VWS V14.01,2013-06-21 22:10:00,
2013-06-21 18:16:00,3.9,-6.5,29.62,North,0,0.0,0.0,61,0.00,,---,0.00,VWS V14.01,2013-06-21 22:16:00,
2013-06-21 18:21:00,4.3,-6.2,29.62,North,0,0.0,0.0,61,0.00,,---,0.00,VWS V14.01,2013-06-21 22:21:00,
2013-06-21 18:27:00,5.0,-5.5,29.62,North,0,0.0,0.0,61,0.00,,---,0.00,VWS V14.01,2013-06-21 22:27:00,
2013-06-21 18:33:00,5.4,-5.2,29.62,North,0,0.0,0.0,61,0.00,,---,0.00,VWS V14.01,2013-06-21 22:33:00,
2013-06-21 18:38:00,5.7,-4.8,29.62,North,0,0.0,0.0,61,0.00,,---,0.00,VWS V14.01,2013-06-21 22:38:00,
2013-06-21 18:43:00,6.1,-4.5,29.62,North,0,0.0,0.0,61,0.00,,---,0.00,VWS V14.01,2013-06-21 22:43:00,
2013-06-21 18:48:00,6.3,-4.3,29.62,North,0,0.0,0.0,61,0.00,,---,0.00,VWS V14.01,2013-06-21 22:48:00,
2013-06-21 18:53:00,6.4,-4.1,29.62,North,0,0.0,0.0,61,0.00,,---,0.00,VWS V14.01,2013-06-21 22:53:00,
2013-06-21 18:58:00,6.3,-4.3,29.62,North,0,0.0,0.0,61,0.00,,---,0.00,VWS V14.01,2013-06-21 22:58:00,
2013-06-21 19:03:00,5.7,-4.8,29.62,North,0,0.0,0.0,61,0.00,,---,0.00,VWS V14.01,2013-06-21 23:03:00,
2013-06-21 19:08:00,5.0,-5.5,29.62,North,0,0.0,0.0,61,0.00,,---,0.00,VWS V14.01,2013-06-21 23:08:00,
2013-06-21 19:14:00,4.1,-6.3,29.62,North,0,0.0,0.0,61,0.00,,---,0.00,VWS V14.01,2013-06-21 23:14:00,
2013-06-21 19:19:00,3.7,-6.7,29.62,North,0,0.0,0.0,61,0.00,,---,0.00,VWS V14.01,2013-06-21 23:19:00,
2013-06-21 19:24:00,3.9,-6.5,29.62,North,0,0.0,0.0,61,0.00,,---,0.00,VWS V14.01,2013-06-21 23:24:00,
2013-06-21 19:29:00,4.3,-6.2,29.62,North,0,0.0,0.0,61,0.00,,---,0.00,VWS V14.01,2013-06-21 23:29:00,
2013-06-21 19:34:00,4.8,-5.7,29.62,North,0,0.0,0.0,61,0.00,,---,0.00,VWS V14.01,2013-06-21 23:34:00,
2013-06-21 19:39:00,5.4,-5.2,29.62,North,0,0.0,0.0,61,0.00,,---,0.00,VWS V14.01,2013-06-21 23:39:00,
2013-06-21 19:45:00,5.5,-5.0,29.62,North,0,0.0,0.0,61,0.00,,---,0.00,VWS V14.01,2013-06-21 23:45:00,
2013-06-21 19:50:00,5.9,-4.6,29.62,North,0,0.0,0.0,61,0.00,,---,0.00,VWS V14.01,2013-06-21 23:50:00,
2013-06-21 19:55:00,6.3,-4.3,29.62,North,0,0.0,0.0,61,0.00,,---,0.00,VWS V14.01,2013-06-21 23:55:00,
2013-06-21 20:00:00,6.4,-4.1,29.62,North,0,0.0,0.0,61,0.00,,---,0.00,VWS V14.01,2013-06-22 00:00:00,
2013-06-21 20:05:00,6.4,-4.1,29.62,North,0,0.0,0.0,61,0.00,,---,0.00,VWS V14.01,2013-06-22 00:05:00,
2013-06-21 20:10:00,5.9,-4.6,29.62,North,0,0.0,0.0,61,0.00,,---,0.00,VWS V14.01,2013-06-22 00:10:00,
2013-06-21 20:15:00,5.4,-5.2,29.62,North,0,0.0,0.0,61,0.00,,---,0.00,VWS V14.01,2013-06-22 00:15:00,
2013-06-21 20:20:00,4.8,-5.7,29.62,North,0,0.0,0.0,61,0.00,,---,0.00,VWS V14.01,2013-06-22 00:20:00,
2013-06-21 20:25:00,3.6,-6.9,29.62,North,0,0.0,0.0,61,0.00,,---,0.00,VWS V14.01,2013-06-22 00:25:00,
2013-06-21 20:31:00,3.6,-6.9,29.62,North,0,0.0,0.0,61,0.00,,---,0.00,VWS V14.01,2013-06-22 00:31:00,
2013-06-21 20:37:00,4.1,-6.3,29.62,North,0,0.0,0.0,61,0.00,,---,0.00,VWS V14.01,2013-06-22 00:37:00,
2013-06-21 20:43:00,4.5,-6.0,29.62,North,0,0.0,0.0,61,0.00,,---,0.00,VWS V14.01,2013-06-22 00:43:00,
2013-06-21 20:48:00,5.0,-5.5,29.62,North,0,0.0,0.0,61,0.00,,---,0.00,VWS V14.01,2013-06-22 00:48:00,
2013-06-21 20:54:00,5.4,-5.2,29.62,North,0,0.0,0.0,61,0.00,,---,0.00,VWS V14.01,2013-06-22 00:54:00,
2013-06-21 20:59:00,5.9,-4.6,29.62,North,0,0.0,0.0,61,0.00,,---,0.00,VWS V14.01,2013-06-22 00:59:00,
2013-06-21 21:04:00,6.3,-4.3,29.62,North,0,0.0,0.0,61,0.00,,---,0.00,VWS V14.01,2013-06-22 01:04:00,
2013-06-21 21:10:00,6.4,-4.1,29.62,North,0,0.0,0.0,61,0.00,,---,0.00,VWS V14.01,2013-06-22 01:10:00,
2013-06-21 21:15:00,6.4,-4.1,29.62,North,0,0.0,0.0,61,0.00,,---,0.00,VWS V14.01,2013-06-22 01:15:00,
2013-06-21 21:20:00,5.7,-4.8,29.62,North,0,0.0,0.0,61,0.00,,---,0.00,VWS V14.01,2013-06-22 01:20:00,
2013-06-21 21:25:00,5.0,-5.5,29.62,North,0,0.0,0.0,61,0.00,,---,0.00,VWS V14.01,2013-06-22 01:25:00,
2013-06-21 21:31:00,4.5,-6.0,29.62,North,0,0.0,0.0,61,0.00,,---,0.00,VWS V14.01,2013-06-22 01:31:00,
2013-06-21 21:37:00,3.6,-6.9,29.62,North,0,0.0,0.0,61,0.00,,---,0.00,VWS V14.01,2013-06-22 01:37:00,
2013-06-21 21:42:00,3.7,-6.7,29.62,North,0,0.0,0.0,61,0.00,,---,0.00,VWS V14.01,2013-06-22 01:42:00,
2013-06-21 21:47:00,3.9,-6.5,29.65,North,0,0.0,0.0,61,0.00,,---,0.00,VWS V14.01,2013-06-22 01:47:00,
2013-06-21 21:53:00,4.3,-6.2,29.65,North,0,0.0,0.0,61,0.00,,---,0.00,VWS V14.01,2013-06-22 01:53:00,
2013-06-21 21:58:00,4.8,-5.7,29.65,North,0,0.0,0.0,61,0.00,,---,0.00,VWS V14.01,2013-06-22 01:58:00,
2013-06-21 22:03:00,5.4,-5.2,29.65,North,0,0.0,0.0,61,0.00,,---,0.00,VWS V14.01,2013-06-22 02:03:00,
2013-06-21 22:08:00,5.7,-4.8,29.65,North,0,0.0,0.0,61,0.00,,---,0.00,VWS V14.01,2013-06-22 02:08:00,
2013-06-21 22:14:00,6.1,-4.5,29.62,North,0,0.0,0.0,61,0.00,,---,0.00,VWS V14.01,2013-06-22 02:14:00,
2013-06-21 22:19:00,6.4,-4.1,29.65,North,0,0.0,0.0,61,0.00,,---,0.00,VWS V14.01,2013-06-22 02:19:00,
2013-06-21 22:25:00,6.4,-4.1,29.65,North,0,0.0,0.0,61,0.00,,---,0.00,VWS V14.01,2013-06-22 02:25:00,
2013-06-21 22:30:00,6.1,-4.5,29.65,North,0,0.0,0.0,61,0.00,,---,0.00,VWS V14.01,2013-06-22 02:30:00,
2013-06-21 22:35:00,5.0,-5.5,29.65,North,0,0.0,0.0,61,0.00,,---,0.00,VWS V14.01,2013-06-22 02:35:00,
2013-06-21 22:41:00,4.5,-6.0,29.65,North,0,0.0,0.0,61,0.00,,---,0.00,VWS V14.01,2013-06-22 02:41:00,
2013-06-21 22:47:00,3.6,-6.9,29.65,North,0,0.0,0.0,61,0.00,,---,0.00,VWS V14.01,2013-06-22 02:47:00,
2013-06-21 22:53:00,3.7,-6.7,29.65,North,0,0.0,0.0,61,0.00,,---,0.00,VWS V14.01,2013-06-22 02:53:00,
2013-06-21 22:58:00,4.1,-6.3,29.65,North,0,0.0,0.0,61,0.00,,---,0.00,VWS V14.01,2013-06-22 02:58:00,
2013-06-21 23:04:00,4.5,-6.0,29.65,North,0,0.0,0.0,61,0.00,,---,0.00,VWS V14.01,2013-06-22 03:04:00,
2013-06-21 23:09:00,5.0,-5.5,29.65,North,0,0.0,0.0,61,0.00,,---,0.00,VWS V14.01,2013-06-22 03:09:00,
2013-06-21 23:15:00,5.5,-5.0,29.65,North,0,0.0,0.0,61,0.00,,---,0.00,VWS V14.01,2013-06-22 03:15:00,
2013-06-21 23:21:00,5.9,-4.6,29.62,North,0,0.0,0.0,61,0.00,,---,0.00,VWS V14.01,2013-06-22 03:21:00,
2013-06-21 23:26:00,6.3,-4.3,29.62,North,0,0.0,0.0,61,0.00,,---,0.00,VWS V14.01,2013-06-22 03:26:00,
2013-06-21 23:31:00,6.4,-4.1,29.65,North,0,0.0,0.0,61,0.00,,---,0.00,VWS V14.01,2013-06-22 03:31:00,
2013-06-21 23:37:00,6.3,-4.3,29.65,North,0,0.0,0.0,61,0.00,,---,0.00,VWS V14.01,2013-06-22 03:37:00,
2013-06-21 23:42:00,5.7,-4.8,29.65,North,0,0.0,0.0,61,0.00,,---,0.00,VWS V14.01,2013-06-22 03:42:00,
2013-06-21 23:48:00,5.0,-5.5,29.65,North,0,0.0,0.0,61,0.00,,---,0.00,VWS V14.01,2013-06-22 03:48:00,
2013-06-21 23:53:00,4.3,-6.2,29.65,North,0,0.0,0.0,61,0.00,,---,0.00,VWS V14.01,2013-06-22 03:53:00,
2013-06-21 23:58:00,3.6,-6.9,29.65,North,0,0.0,0.0,61,0.00,,---,0.00,VWS V14.01,2013-06-22 03:58:00,